RYR91AC LICT-LIBD

Flight info

Callsign RYR91AC
Flight time 0h 52m
Altitude 32000
Route PAL DCT ROSAS DCT AMANO DCT NAXES DCT VARAL DCT POLIT DCT KUTID DCT VEGAN DCT BUMOK
Aircraft B738/M-SDE3FGILRWY/SB1

Departure

Time 2026-04-27 16:26
Airport Vincenzo Florio Airport Trapani-Birgi (LICT)

Arrival

Time 2026-04-27 17:18
Airport Bari Karol Wojtyła International Airport (LIBD)
Time Latitude Longitude Altitude Speed Heading
2026-04-27 15:59 37.90320 12.49539 30 ft 0 kts 261°
2026-04-27 16:20 37.90336 12.49589 30 ft 4 kts 216°
2026-04-27 16:21 37.90355 12.49597 30 ft 4 kts 144°
2026-04-27 16:21 37.90360 12.49593 30 ft 0 kts 128°
2026-04-27 16:23 37.90349 12.49611 29 ft 6 kts 128°
2026-04-27 16:23 37.90309 12.49677 28 ft 13 kts 125°
2026-04-27 16:24 37.90355 12.49732 31 ft 13 kts 323°
2026-04-27 16:24 37.90494 12.49723 33 ft 13 kts 38°
2026-04-27 16:25 37.90608 12.49662 35 ft 21 kts 307°
2026-04-27 16:25 37.91321 12.48504 27 ft 140 kts 308°
2026-04-27 16:26 37.92730 12.46344 813 ft 168 kts 318°
2026-04-27 16:26 37.95127 12.45640 1497 ft 203 kts 352°
2026-04-27 16:27 37.98231 12.45172 1856 ft 246 kts 347°
2026-04-27 16:27 38.03035 12.42180 3821 ft 263 kts 333°
2026-04-27 16:28 38.06369 12.40112 5233 ft 270 kts 340°
2026-04-27 16:28 38.09448 12.40393 6337 ft 280 kts 27°
2026-04-27 16:29 38.13125 12.46154 8572 ft 287 kts 58°
2026-04-27 16:30 38.14651 12.50868 9934 ft 299 kts 90°
2026-04-27 16:30 38.13833 12.56280 10729 ft 334 kts 104°
2026-04-27 16:31 38.11978 12.65511 12028 ft 372 kts 102°
2026-04-27 16:31 38.10908 12.72018 13469 ft 379 kts 101°
2026-04-27 16:32 38.09857 12.78631 15013 ft 385 kts 101°
2026-04-27 16:32 38.09325 12.81927 15753 ft 388 kts 101°
2026-04-27 16:33 38.08208 12.88747 17154 ft 395 kts 101°
2026-04-27 16:33 38.07644 12.92173 17836 ft 398 kts 101°
2026-04-27 16:33 38.07080 12.95582 18491 ft 401 kts 101°
2026-04-27 16:33 38.06504 12.99063 19121 ft 405 kts 101°
2026-04-27 16:34 38.05921 13.02581 19695 ft 410 kts 101°
2026-04-27 16:34 38.05331 13.06132 20279 ft 414 kts 101°
2026-04-27 16:34 38.04827 13.09742 20823 ft 417 kts 92°
2026-04-27 16:34 38.05165 13.13385 21379 ft 418 kts 71°
2026-04-27 16:35 38.06430 13.16678 21956 ft 417 kts 52°
2026-04-27 16:35 38.08413 13.19339 22506 ft 416 kts 36°
2026-04-27 16:35 38.13643 13.22388 23516 ft 418 kts 17°
2026-04-27 16:36 38.16407 13.23563 23988 ft 421 kts 16°
2026-04-27 16:36 38.19205 13.24738 24459 ft 425 kts 16°
2026-04-27 16:36 38.22015 13.25930 24916 ft 428 kts 16°
2026-04-27 16:36 38.24847 13.27146 25336 ft 431 kts 17°
2026-04-27 16:37 38.27692 13.28383 25764 ft 434 kts 17°
2026-04-27 16:37 38.30554 13.29638 26176 ft 437 kts 17°
2026-04-27 16:37 38.33436 13.30907 26569 ft 440 kts 17°
2026-04-27 16:37 38.36338 13.32189 26960 ft 442 kts 17°
2026-04-27 16:38 38.39252 13.33478 27322 ft 445 kts 17°
2026-04-27 16:38 38.42185 13.34775 27691 ft 448 kts 17°
2026-04-27 16:38 38.45135 13.36083 28054 ft 450 kts 17°
2026-04-27 16:38 38.48101 13.37399 28394 ft 452 kts 17°
2026-04-27 16:39 38.51079 13.38723 28751 ft 454 kts 17°
2026-04-27 16:39 38.54059 13.40047 29199 ft 453 kts 16°
2026-04-27 16:39 38.57031 13.41368 29697 ft 451 kts 16°
2026-04-27 16:39 38.59986 13.42683 30153 ft 450 kts 16°
2026-04-27 16:40 38.62943 13.43999 30566 ft 449 kts 16°
2026-04-27 16:40 38.65887 13.45311 31016 ft 448 kts 16°
2026-04-27 16:40 38.68823 13.46619 31481 ft 445 kts 16°
2026-04-27 16:40 38.71743 13.47921 31900 ft 444 kts 16°
2026-04-27 16:41 38.74671 13.49229 32071 ft 447 kts 17°
2026-04-27 16:41 38.80552 13.51861 32076 ft 446 kts 17°
2026-04-27 16:42 38.86372 13.54470 32085 ft 442 kts 17°
2026-04-27 16:42 38.92143 13.57059 32088 ft 443 kts 17°
2026-04-27 16:43 38.97963 13.59671 32087 ft 443 kts 17°
2026-04-27 16:43 39.03788 13.62291 32086 ft 444 kts 17°
2026-04-27 16:44 39.09621 13.64922 32085 ft 444 kts 17°
2026-04-27 16:44 39.15461 13.67561 32083 ft 445 kts 17°
2026-04-27 16:45 39.21294 13.70200 32083 ft 444 kts 17°
2026-04-27 16:45 39.27119 13.72840 32085 ft 443 kts 17°
2026-04-27 16:46 39.32924 13.75477 32090 ft 441 kts 17°
2026-04-27 16:46 39.38707 13.78124 32091 ft 441 kts 19°
2026-04-27 16:46 39.41458 13.79883 32087 ft 443 kts 30°
2026-04-27 16:47 39.43967 13.82210 32096 ft 445 kts 38°
2026-04-27 16:47 39.48268 13.88007 32091 ft 447 kts 46°
2026-04-27 16:48 39.52418 13.94005 32092 ft 447 kts 46°
2026-04-27 16:48 39.56590 13.99979 32094 ft 447 kts 46°
2026-04-27 16:49 39.62881 14.08904 32095 ft 447 kts 45°
2026-04-27 16:49 39.67075 14.14856 32100 ft 447 kts 45°
2026-04-27 16:50 39.71264 14.20814 32100 ft 447 kts 45°
2026-04-27 16:50 39.75450 14.26781 32105 ft 447 kts 46°
2026-04-27 16:51 39.79604 14.32718 32113 ft 447 kts 45°
2026-04-27 16:51 39.83780 14.38697 32126 ft 447 kts 45°
2026-04-27 16:52 39.87959 14.44688 32111 ft 447 kts 46°
2026-04-27 16:52 39.92127 14.50685 32104 ft 447 kts 46°
2026-04-27 16:53 39.96291 14.56702 32115 ft 447 kts 46°
2026-04-27 16:53 40.00458 14.62731 32106 ft 448 kts 46°
2026-04-27 16:54 40.04636 14.68765 31773 ft 449 kts 45°
2026-04-27 16:54 40.06713 14.71759 31393 ft 442 kts 45°
2026-04-27 16:54 40.08764 14.74717 30947 ft 438 kts 45°
2026-04-27 16:55 40.10798 14.77653 30505 ft 434 kts 45°
2026-04-27 16:55 40.12812 14.80564 30061 ft 430 kts 46°
2026-04-27 16:55 40.14806 14.83450 29611 ft 426 kts 45°
2026-04-27 16:55 40.16811 14.86282 29147 ft 422 kts 44°
2026-04-27 16:56 40.18826 14.89063 28684 ft 419 kts 44°
2026-04-27 16:56 40.20830 14.91812 28228 ft 416 kts 44°
2026-04-27 16:56 40.22817 14.94542 27771 ft 413 kts 44°
2026-04-27 16:56 40.24793 14.97264 27329 ft 410 kts 44°
2026-04-27 16:57 40.26749 14.99968 26876 ft 408 kts 44°
2026-04-27 16:57 40.28690 15.02658 26426 ft 405 kts 44°
2026-04-27 16:57 40.30620 15.05339 25984 ft 403 kts 44°
2026-04-27 16:57 40.32535 15.08001 25533 ft 400 kts 44°
2026-04-27 16:58 40.34438 15.10652 25090 ft 398 kts 44°
2026-04-27 16:58 40.36326 15.13282 24648 ft 395 kts 44°
2026-04-27 16:58 40.38202 15.15897 24209 ft 392 kts 44°
2026-04-27 16:58 40.40068 15.18499 23773 ft 390 kts 44°
2026-04-27 16:59 40.41922 15.21088 23337 ft 388 kts 44°
2026-04-27 16:59 40.43764 15.23657 22888 ft 385 kts 44°
2026-04-27 16:59 40.45573 15.26175 22455 ft 384 kts 44°
2026-04-27 16:59 40.47424 15.28753 22005 ft 382 kts 44°
2026-04-27 17:00 40.50435 15.32951 21281 ft 378 kts 44°
2026-04-27 17:00 40.52806 15.36263 20716 ft 374 kts 44°
2026-04-27 17:00 40.54585 15.38751 20285 ft 372 kts 44°
2026-04-27 17:01 40.56350 15.41220 19879 ft 369 kts 44°
2026-04-27 17:01 40.58100 15.43672 19459 ft 367 kts 44°
2026-04-27 17:01 40.59840 15.46112 19040 ft 365 kts 44°
2026-04-27 17:01 40.61484 15.48655 18526 ft 367 kts 50°
2026-04-27 17:02 40.62983 15.51373 18082 ft 366 kts 52°
2026-04-27 17:02 40.64434 15.54114 17656 ft 364 kts 52°
2026-04-27 17:02 40.65879 15.56840 17235 ft 362 kts 52°
2026-04-27 17:02 40.67327 15.59532 16830 ft 359 kts 52°
2026-04-27 17:03 40.68775 15.62193 16428 ft 356 kts 52°
2026-04-27 17:03 40.70177 15.64845 16052 ft 348 kts 54°
2026-04-27 17:03 40.71480 15.67503 15464 ft 344 kts 56°
2026-04-27 17:03 40.72751 15.70162 14786 ft 342 kts 56°
2026-04-27 17:04 40.74011 15.72809 14133 ft 340 kts 56°
2026-04-27 17:04 40.75263 15.75430 13515 ft 336 kts 56°
2026-04-27 17:04 40.76503 15.78019 12917 ft 332 kts 56°
2026-04-27 17:04 40.77735 15.80581 12270 ft 329 kts 57°
2026-04-27 17:05 40.78959 15.83122 11638 ft 327 kts 57°
2026-04-27 17:05 40.80171 15.85639 11062 ft 323 kts 57°
2026-04-27 17:05 40.81356 15.88097 10766 ft 310 kts 57°
2026-04-27 17:05 40.82110 15.89662 10618 ft 301 kts 57°
2026-04-27 17:06 40.83581 15.92718 10218 ft 288 kts 57°
2026-04-27 17:06 40.84640 15.94919 9884 ft 281 kts 57°
2026-04-27 17:06 40.85678 15.97077 9628 ft 277 kts 57°
2026-04-27 17:06 40.86710 15.99225 9337 ft 276 kts 57°
2026-04-27 17:07 40.87738 16.01366 9050 ft 275 kts 57°
2026-04-27 17:07 40.88762 16.03498 8772 ft 274 kts 57°
2026-04-27 17:07 40.89781 16.05623 8493 ft 273 kts 57°
2026-04-27 17:07 40.90784 16.07716 8215 ft 272 kts 57°
2026-04-27 17:08 40.91794 16.09828 7939 ft 271 kts 57°
2026-04-27 17:08 40.92800 16.11932 7661 ft 270 kts 57°
2026-04-27 17:08 40.93795 16.14014 7491 ft 264 kts 57°
2026-04-27 17:08 40.94766 16.16047 7365 ft 258 kts 57°
2026-04-27 17:09 40.95713 16.18026 7246 ft 251 kts 57°
2026-04-27 17:09 40.96631 16.19949 7132 ft 244 kts 57°
2026-04-27 17:09 40.97519 16.21812 7044 ft 236 kts 57°
2026-04-27 17:09 40.98380 16.23620 6938 ft 229 kts 57°
2026-04-27 17:10 40.99232 16.25405 6726 ft 230 kts 57°
2026-04-27 17:10 41.00021 16.27247 6525 ft 231 kts 64°
2026-04-27 17:10 41.00656 16.29197 6311 ft 230 kts 68°
2026-04-27 17:10 41.01232 16.31175 6063 ft 230 kts 69°
2026-04-27 17:11 41.01791 16.33165 5819 ft 231 kts 69°
2026-04-27 17:11 41.02898 16.37130 5361 ft 228 kts 69°
2026-04-27 17:11 41.03449 16.39101 5122 ft 228 kts 69°
2026-04-27 17:12 41.04551 16.43042 4635 ft 228 kts 69°
2026-04-27 17:12 41.05095 16.44998 4417 ft 226 kts 69°
2026-04-27 17:12 41.05641 16.46945 4174 ft 223 kts 69°
2026-04-27 17:13 41.06173 16.48833 3954 ft 213 kts 69°
2026-04-27 17:13 41.06679 16.50634 3715 ft 205 kts 69°
2026-04-27 17:13 41.07168 16.52375 3515 ft 201 kts 70°
2026-04-27 17:13 41.07647 16.54079 3319 ft 193 kts 69°
2026-04-27 17:14 41.08103 16.55697 3136 ft 182 kts 70°
2026-04-27 17:14 41.08539 16.57251 2948 ft 181 kts 70°
2026-04-27 17:14 41.08982 16.58822 2716 ft 181 kts 70°
2026-04-27 17:14 41.09419 16.60373 2465 ft 179 kts 70°
2026-04-27 17:15 41.09851 16.61904 2230 ft 176 kts 70°
2026-04-27 17:15 41.10270 16.63393 2004 ft 167 kts 69°
2026-04-27 17:15 41.10668 16.64798 1779 ft 159 kts 70°
2026-04-27 17:15 41.11045 16.66136 1592 ft 154 kts 70°
2026-04-27 17:16 41.11416 16.67450 1394 ft 150 kts 70°
2026-04-27 17:16 41.11778 16.68741 1171 ft 149 kts 70°
2026-04-27 17:16 41.12138 16.70018 977 ft 147 kts 69°
2026-04-27 17:16 41.12510 16.71301 717 ft 150 kts 69°
2026-04-27 17:17 41.12751 16.72158 559 ft 149 kts 70°
2026-04-27 17:17 41.13111 16.73433 312 ft 147 kts 70°
2026-04-27 17:17 41.13465 16.74684 146 ft 139 kts 73°
2026-04-27 17:18 41.13904 16.76246 134 ft 45 kts 69°
2026-04-27 17:18 41.13994 16.76564 124 ft 21 kts 70°
2026-04-27 17:18 41.13976 16.76700 124 ft 12 kts 114°
2026-04-27 17:18 41.13941 16.76797 122 ft 12 kts 121°
2026-04-27 17:19 41.13876 16.76792 124 ft 11 kts 236°
2026-04-27 17:19 41.13845 16.76698 130 ft 11 kts 248°
2026-04-27 17:19 41.13819 16.76605 133 ft 11 kts 251°
2026-04-27 17:19 41.13768 16.76553 135 ft 10 kts 169°
2026-04-27 17:20 41.13700 16.76549 135 ft 10 kts 203°
2026-04-27 17:20 41.13647 16.76496 135 ft 10 kts 246°
2026-04-27 17:20 41.13623 16.76413 135 ft 10 kts 249°
2026-04-27 17:20 41.13600 16.76332 135 ft 9 kts 249°
2026-04-27 17:21 41.13575 16.76270 135 ft 7 kts 214°
2026-04-27 17:21 41.13533 16.76283 135 ft 5 kts 160°
2026-04-27 17:21 41.13514 16.76292 135 ft 0 kts 160°